sat.trackr.live / text

‹ back to catalog

STARLINK-37926

NORAD 69695 · 2026-145U

PAYLOAD ACTIVE UNKNOWN

§ Identity

Operator
Country
US
Launch date
2026-06-25
Launch site
AFWTR
Launch vehicle
Mass (kg)
RCS (m²)

Purposes: comms

External: N2YO · Heavens-Above · Gunter

§ Orbital elements

Epoch: 2026-09-19T01:14:49.117632Z

Period
93.91 min
Inclination
97.2842°
Eccentricity
0.0001443
Mean motion
15.33449836 rev/d
Perigee alt
464.5 km
Apogee alt
466.5 km
Semi-major
6,843.7 km
B*
4.7410e-4
RAAN
108.7751°
Arg perigee
91.9316°
Mean anomaly
268.2092°
Rev number
1,332

§ Raw data

STARLINK-379261 69695U 26145U   26262.05195738  .00015264  00000+0  47410-3 0  99952 69695  97.2842 108.7751 0001443  91.9316 268.2092 15.33449836 13323

JSON: /api/v1/satellites/69695 · /tle

For live sub-satellite position, see the globe view (requires WebGL).

§ Visibility from observer

Set your observer location to see the next 7 days of passes ≥ 10°. The values pass through the URL so the page stays shareable.

No JS? Fill the form by hand. The geolocation button needs JavaScript.